This is the latest recevied weather packets stored in our database for station/object VE8SKI. If no packets are shown the sender has not sent any weather packets the latest 10 day(s).
| Time | Temp. | Humidity | Pressure | Rain* | Wind** | Luminosity | Snow |
|---|---|---|---|---|---|---|---|
| 1778079521 | 5° C | 46% | 1013.7 hPa | 0 mm | 4.47 m/s, 245° | - | - |
| 1778079218 | 5° C | 46% | 1013.8 hPa | 0 mm | 4.02 m/s, 139° | - | - |
| 1778078919 | 4.44° C | 46% | 1013.9 hPa | 0 mm | 4.47 m/s, 218° | - | - |
| 1778078619 | 4.44° C | 46% | 1013.9 hPa | 0 mm | 4.47 m/s, 198° | - | - |
| 1778078320 | 4.44° C | 47% | 1014 hPa | 0 mm | 4.47 m/s, 180° | - | - |
| 1778078020 | 4.44° C | 47% | 1014.1 hPa | 0 mm | 4.92 m/s, 131° | - | - |
| 1778077720 | 3.89° C | 48% | 1014.1 hPa | 0 mm | 3.58 m/s, 276° | - | - |
| 1778077418 | 3.89° C | 49% | 1014.2 hPa | 0 mm | 4.02 m/s, 250° | - | - |
| 1778077118 | 3.89° C | 49% | 1014.3 hPa | 0 mm | 3.13 m/s, 204° | - | - |
| 1778076831 | 3.89° C | 48% | 1014.4 hPa | 0 mm | 4.02 m/s, 249° | - | - |
| 1778076519 | 3.89° C | 49% | 1014.4 hPa | 0 mm | 4.92 m/s, 240° | - | - |
| 1778076220 | 3.89° C | 49% | 1014.5 hPa | 0 mm | 4.92 m/s, 228° | - | - |
| 1778075920 | 3.33° C | 49% | 1014.6 hPa | 0 mm | 3.58 m/s, 166° | - | - |
| 1778075618 | 3.33° C | 49% | 1014.6 hPa | 0 mm | 4.02 m/s, 270° | - | - |
| 1778075318 | 3.33° C | 49% | 1014.7 hPa | 0 mm | 4.92 m/s, 219° | - | - |
| 1778075019 | 3.33° C | 50% | 1014.7 hPa | 0 mm | 4.47 m/s, 125° | - | - |
| 1778074719 | 3.33° C | 50% | 1014.7 hPa | 0 mm | 4.92 m/s, 233° | - | - |
| 1778074419 | 3.33° C | 50% | 1014.8 hPa | 0 mm | 4.92 m/s, 207° | - | - |
| 1778074120 | 3.33° C | 51% | 1014.9 hPa | 0 mm | 3.13 m/s, 242° | - | - |
| 1778073818 | 3.33° C | 50% | 1014.9 hPa | 0 mm | 4.47 m/s, 201° | - | - |
| 1778073518 | 3.33° C | 51% | 1015 hPa | 0 mm | 4.92 m/s, 180° | - | - |
| 1778073218 | 3.33° C | 51% | 1015.1 hPa | 0 mm | 0.89 m/s, 201° | - | - |
| 1778072919 | 2.78° C | 52% | 1015.1 hPa | 0 mm | 3.58 m/s, 183° | - | - |
| 1778072619 | 2.78° C | 52% | 1015.2 hPa | 0 mm | 3.58 m/s, 21° | - | - |
| 1778072320 | 2.78° C | 52% | 1015.4 hPa | 0 mm | 4.02 m/s, 210° | - | - |
* Rain latest hour (hover to see other rain measurements)
** Current wind speed in m/s (hover to see current wind gust speed)